RH
44 47 46 49 52 55 60 62 63 63 66 68 67 68 70 69 68 67 66 67 68 65 60 57 54 53 58 59 55 54 48 48
44 45 45 44 46 48 50 55 57 59 60 62 64 64 63 63 69 77 82 83 84 84 85 86 80 73 68 62 62 62 54 54
34 34 38 40 42 44 45 46 44 43 46 49 52 54 55 59 63 67 75 75 77 79 85 84 82 80 80 79 75 70 65 61
38 40 43 42 44 45 46 45 44 43 43 42 44 49 54 59 63 67 70 71 72 71 73 71 74 76 80 83 80 80 80 73
47 43 43 45 48 51 50 48 45 40 41 42 46 51 59 64 67 69 70 70 67 64 70 70 68 72 84 82 79 80 76 73
48 49 50 52 53 47 44 43 43 45 44 45 50 54 59 64 67 70 73 73 71 60 54 55 58 65 62 61 61 68 74 74
54 53 54 55 53 47 47 48 49 49 47 51 52 55 60 66 71 75 75 75 75 66 64 62 59 57 59 68 71 66 62 61
59 59 60 61 58 55 54 54 54 54 54 52 54 60 67 72 75 76 79 83 72 69 72 76 77 77 74 67 63 61 62 61
64 65 65 61 58 58 56 53 51 54 55 61 66 70 75 76 77 81 85 79 71 69 73 71 69 66 63 58 58 56 53 53
68 66 66 59 52 49 52 56 61 65 65 73 79 85 83 83 85 83 85 79 73 69 62 57 55 54 52 51 49 44 42 42
59 56 49 46 50 55 60 64 71 77 75 78 85 86 84 88 85 84 86 76 62 55 52 50 48 46 44 44 43 39 37 34
50 49 51 54 57 59 65 70 76 79 81 84 86 84 82 77 75 64 58 49 44 41 40 39 39 41 42 43 45 42 34 31
54 56 59 59 60 62 64 70 73 74 74 77 75 67 54 42 36 34 35 35 36 39 37 40 41 43 47 51 53 55 53 48
57 62 62 60 63 62 64 66 69 67 62 49 34 28 27 28 29 29 30 33 33 34 37 41 43 44 47 48 47 52 59 62
59 60 61 63 59 59 60 56 48 34 23 23 25 23 20 18 16 16 15 15 15 16 19 22 25 26 30 40 49 55 62 75
63 62 65 63 61 61 55 41 22 18 17 15 13 13 12 13 13 13 14 15 18 20 19 20 22 26 28 31 30 37 39 39
64 66 68 67 64 56 32 16 14 14 14 14 13 13 13 14 15 16 17 19 20 22 24 26 29 29 28 31 41 38 28 25
61 64 69 69 60 23 12 14 14 14 15 15 15 15 16 18 19 20 23 24 24 29 29 28 29 32 34 41 40 40 31 27
59 64 70 62 23 13 14 15 17 18 18 16 16 16 18 20 21 23 24 25 30 29 31 32 32 31 31 30 30 34 34 33